STARLINK-35698

Last updated on Tue Dec 16 2025 00:02:05 GMT+0000 (Coordinated Universal Time)

1 66481U 25262AB 25349.33335648 -.02039532 00000+0 -52205-1 0 9990 2 66481 43.0005 55.9113 0001648 264.9932 198.8792 15.42223981 6059

Satellite not in orbit